When you browse on this site, cookies collect data to enhance your experience and personalize the content and advertising you see.
Visit our Privacy Policy to learn more. By continuing to use the site, you agree to this use of cookies and data.
EN

Hourly Weather Klishkivtsi

Today, 23 September, Wednesday

Time Temperature Precipitation Wind Pressure Humidity
00:00 +13°C° 0 mm 3 mps 740 mmHg 42%
01:00 +12°C° 0 mm 3 mps 740 mmHg 44%
02:00 +12°C° 0 mm 3 mps 740 mmHg 48%
03:00 +11°C° 0 mm 3 mps 739 mmHg 54%
04:00 +11°C° 0 mm 3 mps 739 mmHg 60%
05:00 +10°C° 0 mm 2 mps 739 mmHg 67%
06:00 +11°C° 0 mm 3 mps 739 mmHg 66%
07:00 +12°C° 0 mm 3 mps 739 mmHg 65%
08:00 +14°C° 0 mm 3 mps 739 mmHg 63%
09:00 +17°C° 0 mm 4 mps 739 mmHg 56%
10:00 +19°C° 0 mm 4 mps 738 mmHg 50%
11:00 +21°C° 0 mm 5 mps 738 mmHg 43%
12:00 +23°C° 0 mm 5 mps 738 mmHg 40%
13:00 +25°C° 0 mm 5 mps 738 mmHg 37%
14:00 +26°C° 0 mm 5 mps 737 mmHg 35%
15:00 +25°C° 0 mm 5 mps 737 mmHg 36%
16:00 +25°C° 0 mm 4 mps 736 mmHg 37%
17:00 +23°C° 0 mm 4 mps 736 mmHg 38%
18:00 +22°C° 0 mm 4 mps 736 mmHg 41%
19:00 +20°C° 0 mm 3 mps 736 mmHg 44%
20:00 +18°C° 0 mm 3 mps 736 mmHg 47%
21:00 +17°C° 0 mm 3 mps 736 mmHg 49%
22:00 +16°C° 0 mm 2 mps 736 mmHg 50%
23:00 +15°C° 0 mm 2 mps 736 mmHg 51%

Tomorrow, 24 September, Thursday

Time Temperature Precipitation Wind Pressure Humidity
00:00 +15°C° 0 mm 2 mps 736 mmHg 53%
01:00 +14°C° 0 mm 2 mps 736 mmHg 55%
02:00 +14°C° 0 mm 2 mps 736 mmHg 57%
03:00 +13°C° 0 mm 2 mps 736 mmHg 58%
04:00 +13°C° 0 mm 2 mps 736 mmHg 59%
05:00 +13°C° 0 mm 1 mps 736 mmHg 60%
06:00 +14°C° 0 mm 2 mps 736 mmHg 59%
07:00 +15°C° 0 mm 2 mps 736 mmHg 58%
08:00 +16°C° 0 mm 2 mps 736 mmHg 57%
09:00 +18°C° 0 mm 2 mps 736 mmHg 53%
10:00 +20°C° 0 mm 3 mps 736 mmHg 49%
11:00 +22°C° 0 mm 3 mps 736 mmHg 45%
12:00 +25°C° 0 mm 3 mps 736 mmHg 42%
13:00 +26°C° 0 mm 3 mps 736 mmHg 39%
14:00 +27°C° 0 mm 2 mps 736 mmHg 35%
15:00 +26°C° 0.1 mm 2 mps 736 mmHg 42%
16:00 +25°C° 0.1 mm 2 mps 735 mmHg 48%
17:00 +24°C° 0.1 mm 2 mps 735 mmHg 54%
18:00 +21°C° 0.1 mm 2 mps 735 mmHg 57%
19:00 +21°C° 0.1 mm 1 mps 736 mmHg 59%
20:00 +18°C° 0.1 mm 0 mps 736 mmHg 61%
21:00 +18°C° 0.2 mm 0 mps 736 mmHg 64%
22:00 +17°C° 0.2 mm 0 mps 736 mmHg 66%
23:00 +16°C° 0.2 mm 0 mps 736 mmHg 69%

Day after tomorrow, 25 September, Friday

Time Temperature Precipitation Wind Pressure Humidity
00:00 +16°C° 0.1 mm 0 mps 735 mmHg 71%
01:00 +18°C° 0.1 mm 1 mps 735 mmHg 73%
02:00 +16°C° 0.1 mm 1 mps 735 mmHg 76%
03:00 +16°C° 0 mm 1 mps 735 mmHg 79%
04:00 +15°C° 0 mm 1 mps 735 mmHg 83%
05:00 +15°C° 0 mm 1 mps 734 mmHg 87%
06:00 +16°C° 0 mm 1 mps 734 mmHg 84%
07:00 +17°C° 0 mm 2 mps 734 mmHg 80%
08:00 +18°C° 0 mm 2 mps 734 mmHg 77%
09:00 +20°C° 0 mm 3 mps 734 mmHg 70%
10:00 +21°C° 0 mm 4 mps 734 mmHg 63%
11:00 +23°C° 0 mm 4 mps 733 mmHg 56%
12:00 +26°C° 0 mm 4 mps 733 mmHg 52%
13:00 +27°C° 0 mm 5 mps 732 mmHg 48%
14:00 +28°C° 0 mm 5 mps 732 mmHg 43%
15:00 +28°C° 0 mm 4 mps 731 mmHg 43%
16:00 +27°C° 0 mm 4 mps 731 mmHg 42%
17:00 +27°C° 0 mm 3 mps 731 mmHg 42%
18:00 +25°C° 0.1 mm 3 mps 731 mmHg 48%
19:00 +24°C° 0.1 mm 3 mps 731 mmHg 53%
20:00 +21°C° 0.1 mm 3 mps 730 mmHg 59%
21:00 +20°C° 0.1 mm 3 mps 730 mmHg 62%
22:00 +19°C° 0.1 mm 3 mps 730 mmHg 65%
23:00 +19°C° 0.1 mm 3 mps 730 mmHg 68%

26 September, Saturday

Time Temperature Precipitation Wind Pressure Humidity
00:00 +18°C° 0 mm 4 mps 730 mmHg 71%
01:00 +18°C° 0 mm 4 mps 729 mmHg 74%
02:00 +18°C° 0 mm 4 mps 729 mmHg 77%
03:00 +16°C° 0 mm 5 mps 729 mmHg 80%
04:00 +16°C° 0 mm 5 mps 728 mmHg 83%
05:00 +15°C° 0 mm 6 mps 728 mmHg 85%
06:00 +16°C° 0 mm 7 mps 728 mmHg 82%
07:00 +17°C° 0 mm 8 mps 728 mmHg 79%
08:00 +18°C° 0 mm 8 mps 728 mmHg 76%
09:00 +19°C° 0 mm 9 mps 728 mmHg 70%
10:00 +22°C° 0 mm 9 mps 728 mmHg 63%
11:00 +23°C° 0 mm 10 mps 728 mmHg 57%
12:00 +24°C° 0 mm 10 mps 727 mmHg 54%
13:00 +26°C° 0 mm 10 mps 727 mmHg 50%
14:00 +27°C° 0 mm 10 mps 727 mmHg 47%
15:00 +26°C° 0.2 mm 9 mps 726 mmHg 52%
16:00 +24°C° 0.2 mm 8 mps 726 mmHg 58%
17:00 +23°C° 0.2 mm 8 mps 725 mmHg 63%
18:00 +22°C° 0.6 mm 7 mps 725 mmHg 64%
19:00 +21°C° 0.6 mm 7 mps 725 mmHg 64%
20:00 +21°C° 0.6 mm 7 mps 725 mmHg 65%
21:00 +20°C° 0.2 mm 7 mps 724 mmHg 69%
22:00 +20°C° 0.2 mm 7 mps 724 mmHg 74%
23:00 +18°C° 0.2 mm 8 mps 724 mmHg 78%

27 September, Sunday

Time Temperature Precipitation Wind Pressure Humidity
00:00 +18°C° 0.7 mm 8 mps 724 mmHg 82%
01:00 +18°C° 0.7 mm 9 mps 723 mmHg 85%
02:00 +17°C° 0.7 mm 9 mps 723 mmHg 88%
03:00 +17°C° 1.2 mm 9 mps 722 mmHg 87%
04:00 +17°C° 1.2 mm 9 mps 722 mmHg 87%
05:00 +18°C° 1.2 mm 9 mps 722 mmHg 87%
06:00 +18°C° 2.8 mm 8 mps 722 mmHg 85%
07:00 +18°C° 2.8 mm 8 mps 722 mmHg 83%
08:00 +18°C° 2.8 mm 7 mps 722 mmHg 81%
09:00 +18°C° 1.1 mm 7 mps 722 mmHg 79%
10:00 +17°C° 1.1 mm 8 mps 723 mmHg 77%
11:00 +16°C° 1.1 mm 9 mps 724 mmHg 76%
12:00 +15°C° 0.4 mm 8 mps 724 mmHg 77%
13:00 +14°C° 0.4 mm 7 mps 725 mmHg 78%
14:00 +13°C° 0.4 mm 6 mps 726 mmHg 79%
15:00 +13°C° 0.5 mm 5 mps 727 mmHg 79%
16:00 +12°C° 0.5 mm 4 mps 727 mmHg 78%
17:00 +12°C° 0.5 mm 3 mps 728 mmHg 78%
18:00 +13°C° 0 mm 2 mps 729 mmHg 78%
19:00 +13°C° 0 mm 2 mps 730 mmHg 78%
20:00 +13°C° 0 mm 2 mps 731 mmHg 78%
21:00 +12°C° 0 mm 1 mps 732 mmHg 78%
22:00 +12°C° 0 mm 1 mps 732 mmHg 78%
23:00 +11°C° 0 mm 1 mps 733 mmHg 78%

28 September, Monday

Time Temperature Precipitation Wind Pressure Humidity
00:00 +11°C° 0 mm 1 mps 733 mmHg 79%
01:00 +10°C° 0 mm 1 mps 733 mmHg 79%
02:00 +10°C° 0 mm 1 mps 733 mmHg 79%
03:00 +10°C° 0 mm 1 mps 733 mmHg 78%
04:00 +10°C° 0 mm 1 mps 733 mmHg 77%
05:00 +9°C° 0 mm 1 mps 733 mmHg 77%
06:00 +9°C° 0 mm 2 mps 734 mmHg 75%
07:00 +10°C° 0 mm 2 mps 734 mmHg 73%
08:00 +12°C° 0 mm 2 mps 734 mmHg 71%
09:00 +12°C° 0 mm 3 mps 734 mmHg 67%
10:00 +13°C° 0 mm 4 mps 733 mmHg 62%
11:00 +14°C° 0 mm 5 mps 733 mmHg 58%
12:00 +15°C° 0 mm 5 mps 733 mmHg 56%
13:00 +16°C° 0 mm 5 mps 733 mmHg 54%
14:00 +17°C° 0 mm 5 mps 733 mmHg 52%
15:00 +16°C° 0.1 mm 5 mps 732 mmHg 59%
16:00 +15°C° 0.1 mm 5 mps 732 mmHg 66%
17:00 +15°C° 0.1 mm 5 mps 732 mmHg 73%
18:00 +14°C° 0.1 mm 4 mps 732 mmHg 78%
19:00 +14°C° 0.1 mm 3 mps 731 mmHg 83%
20:00 +14°C° 0.1 mm 2 mps 731 mmHg 87%
21:00 +14°C° 0.3 mm 2 mps 731 mmHg 88%
22:00 +14°C° 0.3 mm 2 mps 731 mmHg 89%
23:00 +14°C° 0.3 mm 2 mps 731 mmHg 90%
Show more